Year,Month,Day,Hour,Minute,Value (Times are PST for temperature in C)
2012,07,28,00,00,14.40
2012,07,28,00,01,14.30
2012,07,28,00,02,14.30
2012,07,28,00,03,14.30
2012,07,28,00,04,14.20
2012,07,28,00,05,14.20
2012,07,28,00,06,14.20
2012,07,28,00,07,14.10
2012,07,28,00,08,14.10
2012,07,28,00,09,14.10
2012,07,28,00,10,14.00
2012,07,28,00,11,14.00
2012,07,28,00,12,14.00
2012,07,28,00,13,13.90
2012,07,28,00,14,13.90
2012,07,28,00,15,13.90
2012,07,28,00,16,13.80
2012,07,28,00,17,13.80
2012,07,28,00,18,13.80
2012,07,28,00,19,13.80
2012,07,28,00,20,13.70
2012,07,28,00,21,13.70
2012,07,28,00,22,13.70
2012,07,28,00,23,13.80
2012,07,28,00,24,13.80
2012,07,28,00,25,13.80
2012,07,28,00,26,13.80
2012,07,28,00,27,13.80
2012,07,28,00,28,13.80
2012,07,28,00,29,13.80
2012,07,28,00,30,13.80
2012,07,28,00,31,13.80
2012,07,28,00,32,13.80
2012,07,28,00,33,13.80
2012,07,28,00,34,13.80
2012,07,28,00,35,13.80
2012,07,28,00,36,13.80
2012,07,28,00,37,13.90
2012,07,28,00,38,13.90
2012,07,28,00,39,13.90
2012,07,28,00,40,13.90
2012,07,28,00,41,13.90
2012,07,28,00,42,13.90
2012,07,28,00,43,13.90
2012,07,28,00,44,13.90
2012,07,28,00,45,13.90
2012,07,28,00,46,13.90
2012,07,28,00,47,14.00
2012,07,28,00,48,14.00
2012,07,28,00,49,14.00
2012,07,28,00,50,14.00
2012,07,28,00,51,14.10
2012,07,28,00,52,14.10
2012,07,28,00,53,14.10
2012,07,28,00,54,14.10
2012,07,28,00,55,14.10
2012,07,28,00,56,14.10
2012,07,28,00,57,14.20
2012,07,28,00,58,14.20
2012,07,28,00,59,14.20
2012,07,28,01,00,14.20
2012,07,28,01,01,14.10
2012,07,28,01,02,14.10
2012,07,28,01,03,14.10
2012,07,28,01,04,14.00
2012,07,28,01,05,14.00
2012,07,28,01,06,13.90
2012,07,28,01,07,13.90
2012,07,28,01,08,13.90
2012,07,28,01,09,13.90
2012,07,28,01,10,13.80
2012,07,28,01,11,13.80
2012,07,28,01,12,13.70
2012,07,28,01,13,13.70
2012,07,28,01,14,13.70
2012,07,28,01,15,13.60
2012,07,28,01,16,13.60
2012,07,28,01,17,13.50
2012,07,28,01,18,13.40
2012,07,28,01,19,13.30
2012,07,28,01,20,13.20
2012,07,28,01,21,13.20
2012,07,28,01,22,13.10
2012,07,28,01,23,13.00
2012,07,28,01,24,13.00
2012,07,28,01,25,12.90
2012,07,28,01,26,12.90
2012,07,28,01,27,12.80
2012,07,28,01,28,12.80
2012,07,28,01,29,12.80
2012,07,28,01,30,12.80
2012,07,28,01,31,12.80
2012,07,28,01,32,12.70
2012,07,28,01,33,12.70
2012,07,28,01,34,12.70
2012,07,28,01,35,12.70
2012,07,28,01,36,12.70
2012,07,28,01,37,12.70
2012,07,28,01,38,12.60
2012,07,28,01,39,12.60
2012,07,28,01,40,12.60
2012,07,28,01,41,12.60
2012,07,28,01,42,12.50
2012,07,28,01,43,12.50
2012,07,28,01,44,12.40
2012,07,28,01,45,12.40
2012,07,28,01,46,12.30
2012,07,28,01,47,12.30
2012,07,28,01,48,12.30
2012,07,28,01,49,12.20
2012,07,28,01,50,12.20
2012,07,28,01,51,12.20
2012,07,28,01,52,12.10
2012,07,28,01,53,12.10
2012,07,28,01,54,12.10
2012,07,28,01,55,12.10
2012,07,28,01,56,12.10
2012,07,28,01,57,12.10
2012,07,28,01,58,12.10
2012,07,28,01,59,12.10
2012,07,28,02,00,12.10
2012,07,28,02,01,12.10
2012,07,28,02,02,12.10
2012,07,28,02,03,12.10
2012,07,28,02,04,12.10
2012,07,28,02,05,12.10
2012,07,28,02,06,12.10
2012,07,28,02,07,12.10
2012,07,28,02,08,12.10
2012,07,28,02,09,12.10
2012,07,28,02,10,12.10
2012,07,28,02,11,12.10
2012,07,28,02,12,12.10
2012,07,28,02,13,12.10
2012,07,28,02,14,12.00
2012,07,28,02,15,12.00
2012,07,28,02,16,12.00
2012,07,28,02,17,12.00
2012,07,28,02,18,12.10
2012,07,28,02,19,12.10
2012,07,28,02,20,12.00
2012,07,28,02,21,12.00
2012,07,28,02,22,12.00
2012,07,28,02,23,12.00
2012,07,28,02,24,12.00
2012,07,28,02,25,12.00
2012,07,28,02,26,12.00
2012,07,28,02,27,11.90
2012,07,28,02,28,11.90
2012,07,28,02,29,11.90
2012,07,28,02,30,11.90
2012,07,28,02,31,11.90
2012,07,28,02,32,11.90
2012,07,28,02,33,11.90
2012,07,28,02,34,11.90
2012,07,28,02,35,11.90
2012,07,28,02,36,11.90
2012,07,28,02,37,11.80
2012,07,28,02,38,11.80
2012,07,28,02,39,11.80
2012,07,28,02,40,11.80
2012,07,28,02,41,11.80
2012,07,28,02,42,11.80
2012,07,28,02,43,11.80
2012,07,28,02,44,11.80
2012,07,28,02,45,11.70
2012,07,28,02,46,11.70
2012,07,28,02,47,11.70
2012,07,28,02,48,11.70
2012,07,28,02,49,11.70
2012,07,28,02,50,11.70
2012,07,28,02,51,11.70
2012,07,28,02,52,11.70
2012,07,28,02,53,11.70
2012,07,28,02,54,11.60
2012,07,28,02,55,11.60
2012,07,28,02,56,11.60
2012,07,28,02,57,11.60
2012,07,28,02,58,11.50
2012,07,28,02,59,11.50
2012,07,28,03,00,11.50
2012,07,28,03,01,11.50
2012,07,28,03,02,11.40
2012,07,28,03,03,11.40
2012,07,28,03,04,11.40
2012,07,28,03,05,11.40
2012,07,28,03,06,11.40
2012,07,28,03,07,11.40
2012,07,28,03,08,11.30
2012,07,28,03,09,11.30
2012,07,28,03,10,11.30
2012,07,28,03,11,11.30
2012,07,28,03,12,11.30
2012,07,28,03,13,11.30
2012,07,28,03,14,11.30
2012,07,28,03,15,11.30
2012,07,28,03,16,11.30
2012,07,28,03,17,11.30
2012,07,28,03,18,11.30
2012,07,28,03,19,11.30
2012,07,28,03,20,11.20
2012,07,28,03,21,11.20
2012,07,28,03,22,11.20
2012,07,28,03,23,11.20
2012,07,28,03,24,11.20
2012,07,28,03,25,11.20
2012,07,28,03,26,11.20
2012,07,28,03,27,11.20
2012,07,28,03,28,11.20
2012,07,28,03,29,11.20
2012,07,28,03,30,11.20
2012,07,28,03,31,11.10
2012,07,28,03,32,11.10
2012,07,28,03,33,11.10
2012,07,28,03,34,11.10
2012,07,28,03,35,11.10
2012,07,28,03,36,11.10
2012,07,28,03,37,11.10
2012,07,28,03,38,11.00
2012,07,28,03,39,11.00
2012,07,28,03,40,11.00
2012,07,28,03,41,11.00
2012,07,28,03,42,11.00
2012,07,28,03,43,11.00
2012,07,28,03,44,11.00
2012,07,28,03,45,10.90
2012,07,28,03,46,10.90
2012,07,28,03,47,10.90
2012,07,28,03,48,10.90
2012,07,28,03,49,10.80
2012,07,28,03,50,10.80
2012,07,28,03,51,10.80
2012,07,28,03,52,10.80
2012,07,28,03,53,10.80
2012,07,28,03,54,10.80
2012,07,28,03,55,10.80
2012,07,28,03,56,10.80
2012,07,28,03,57,10.80
2012,07,28,03,58,10.80
2012,07,28,03,59,10.80
2012,07,28,04,00,10.80
2012,07,28,04,01,10.80
2012,07,28,04,02,10.70
2012,07,28,04,03,10.70
2012,07,28,04,04,10.70
2012,07,28,04,05,10.70
2012,07,28,04,06,10.70
2012,07,28,04,07,10.70
2012,07,28,04,08,10.70
2012,07,28,04,09,10.70
2012,07,28,04,10,10.70
2012,07,28,04,11,10.70
2012,07,28,04,12,10.70
2012,07,28,04,13,10.70
2012,07,28,04,14,10.70
2012,07,28,04,15,10.70
2012,07,28,04,16,10.70
2012,07,28,04,17,10.70
2012,07,28,04,18,10.70
2012,07,28,04,19,10.70
2012,07,28,04,20,10.70
2012,07,28,04,21,10.70
2012,07,28,04,22,10.70
2012,07,28,04,23,10.70
2012,07,28,04,24,10.70
2012,07,28,04,25,10.70
2012,07,28,04,26,10.70
2012,07,28,04,27,10.70
2012,07,28,04,28,10.70
2012,07,28,04,29,10.70
2012,07,28,04,30,10.70
2012,07,28,04,31,10.70
2012,07,28,04,32,10.70
2012,07,28,04,33,10.70
2012,07,28,04,34,10.70
2012,07,28,04,35,10.60
2012,07,28,04,36,10.60
2012,07,28,04,37,10.60
2012,07,28,04,38,10.60
2012,07,28,04,39,10.60
2012,07,28,04,40,10.60
2012,07,28,04,41,10.60
2012,07,28,04,42,10.60
2012,07,28,04,43,10.60
2012,07,28,04,44,10.60
2012,07,28,04,45,10.60
2012,07,28,04,46,10.60
2012,07,28,04,47,10.60
2012,07,28,04,48,10.60
2012,07,28,04,49,10.60
2012,07,28,04,50,10.60
2012,07,28,04,51,10.60
2012,07,28,04,52,10.60
2012,07,28,04,53,10.60
2012,07,28,04,54,10.60
2012,07,28,04,55,10.60
2012,07,28,04,56,10.60
2012,07,28,04,57,10.50
2012,07,28,04,58,10.50
2012,07,28,04,59,10.50
2012,07,28,05,00,10.50
2012,07,28,05,01,10.50
2012,07,28,05,02,10.50
2012,07,28,05,03,10.50
2012,07,28,05,04,10.50
2012,07,28,05,05,10.50
2012,07,28,05,06,10.50
2012,07,28,05,07,10.50
2012,07,28,05,08,10.40
2012,07,28,05,09,10.40
2012,07,28,05,10,10.40
2012,07,28,05,11,10.40
2012,07,28,05,12,10.40
2012,07,28,05,13,10.40
2012,07,28,05,14,10.40
2012,07,28,05,15,10.40
2012,07,28,05,16,10.40
2012,07,28,05,17,10.40
2012,07,28,05,18,10.40
2012,07,28,05,19,10.40
2012,07,28,05,20,10.40
2012,07,28,05,21,10.40
2012,07,28,05,22,10.40
2012,07,28,05,23,10.40
2012,07,28,05,24,10.40
2012,07,28,05,25,10.40
2012,07,28,05,26,10.40
2012,07,28,05,27,10.40
2012,07,28,05,28,10.40
2012,07,28,05,29,10.40
2012,07,28,05,30,10.40
2012,07,28,05,31,10.40
2012,07,28,05,32,10.50
2012,07,28,05,33,10.50
2012,07,28,05,34,10.50
2012,07,28,05,35,10.50
2012,07,28,05,36,10.50
2012,07,28,05,37,10.50
2012,07,28,05,38,10.60
2012,07,28,05,39,10.60
2012,07,28,05,40,10.60
2012,07,28,05,41,10.60
2012,07,28,05,42,10.60
2012,07,28,05,43,10.60
2012,07,28,05,44,10.60
2012,07,28,05,45,10.60
2012,07,28,05,46,10.60
2012,07,28,05,47,10.60
2012,07,28,05,48,10.60
2012,07,28,05,49,10.60
2012,07,28,05,50,10.60
2012,07,28,05,51,10.60
2012,07,28,05,52,10.60
2012,07,28,05,53,10.70
2012,07,28,05,54,10.70
2012,07,28,05,55,10.70
2012,07,28,05,56,10.70
2012,07,28,05,57,10.70
2012,07,28,05,58,10.70
2012,07,28,05,59,10.70
2012,07,28,06,00,10.70
2012,07,28,06,01,10.70
2012,07,28,06,02,10.70
2012,07,28,06,03,10.70
2012,07,28,06,04,10.70
2012,07,28,06,05,10.70
2012,07,28,06,06,10.70
2012,07,28,06,07,10.70
2012,07,28,06,08,10.70
2012,07,28,06,09,10.70
2012,07,28,06,10,10.70
2012,07,28,06,11,10.70
2012,07,28,06,12,10.70
2012,07,28,06,13,10.70
2012,07,28,06,14,10.70
2012,07,28,06,15,10.70
2012,07,28,06,16,10.80
2012,07,28,06,17,10.80
2012,07,28,06,18,10.80
2012,07,28,06,19,10.80
2012,07,28,06,20,10.80
2012,07,28,06,21,10.90
2012,07,28,06,22,10.90
2012,07,28,06,23,10.90
2012,07,28,06,24,11.00
2012,07,28,06,25,11.00
2012,07,28,06,26,11.00
2012,07,28,06,27,11.10
2012,07,28,06,28,11.10
2012,07,28,06,29,11.20
2012,07,28,06,30,11.20
2012,07,28,06,31,11.30
2012,07,28,06,32,11.30
2012,07,28,06,33,11.30
2012,07,28,06,34,11.40
2012,07,28,06,35,11.40
2012,07,28,06,36,11.40
2012,07,28,06,37,11.40
2012,07,28,06,38,11.50
2012,07,28,06,39,11.50
2012,07,28,06,40,11.60
2012,07,28,06,41,11.60
2012,07,28,06,42,11.60
2012,07,28,06,43,11.70
2012,07,28,06,44,11.80
2012,07,28,06,45,11.80
2012,07,28,06,46,11.90
2012,07,28,06,47,11.90
2012,07,28,06,48,11.90
2012,07,28,06,49,12.00
2012,07,28,06,50,12.00
2012,07,28,06,51,12.00
2012,07,28,06,52,12.10
2012,07,28,06,53,12.10
2012,07,28,06,54,12.10
2012,07,28,06,55,12.10
2012,07,28,06,56,12.10
2012,07,28,06,57,12.10
2012,07,28,06,58,12.20
2012,07,28,06,59,12.20
2012,07,28,07,00,12.20
2012,07,28,07,01,12.20
2012,07,28,07,02,12.30
2012,07,28,07,03,12.30
2012,07,28,07,04,12.40
2012,07,28,07,05,12.50
2012,07,28,07,06,12.50
2012,07,28,07,07,12.60
2012,07,28,07,08,12.60
2012,07,28,07,09,12.60
2012,07,28,07,10,12.60
2012,07,28,07,11,12.70
2012,07,28,07,12,12.70
2012,07,28,07,13,12.70
2012,07,28,07,14,12.70
2012,07,28,07,15,12.80
2012,07,28,07,16,12.80
2012,07,28,07,17,12.80
2012,07,28,07,18,12.80
2012,07,28,07,19,12.90
2012,07,28,07,20,12.90
2012,07,28,07,21,13.00
2012,07,28,07,22,13.00
2012,07,28,07,23,13.10
2012,07,28,07,24,13.10
2012,07,28,07,25,13.20
2012,07,28,07,26,13.20
2012,07,28,07,27,13.20
2012,07,28,07,28,13.30
2012,07,28,07,29,13.30
2012,07,28,07,30,13.30
2012,07,28,07,31,13.40
2012,07,28,07,32,13.40
2012,07,28,07,33,13.50
2012,07,28,07,34,13.60
2012,07,28,07,35,13.70
2012,07,28,07,36,13.70
2012,07,28,07,37,13.80
2012,07,28,07,38,13.80
2012,07,28,07,39,13.90
2012,07,28,07,40,14.00
2012,07,28,07,41,14.00
2012,07,28,07,42,14.10
2012,07,28,07,43,14.10
2012,07,28,07,44,14.20
2012,07,28,07,45,14.20
2012,07,28,07,46,14.30
2012,07,28,07,47,14.30
2012,07,28,07,48,14.40
2012,07,28,07,49,14.40
2012,07,28,07,50,14.40
2012,07,28,07,51,14.50
2012,07,28,07,52,14.50
2012,07,28,07,53,14.60
2012,07,28,07,54,14.60
2012,07,28,07,55,14.70
2012,07,28,07,56,14.70
2012,07,28,07,57,14.80
2012,07,28,07,58,14.80
2012,07,28,07,59,14.90
2012,07,28,08,00,15.00
2012,07,28,08,01,15.00
2012,07,28,08,02,15.00
2012,07,28,08,03,15.00
2012,07,28,08,04,15.00
2012,07,28,08,05,15.00
2012,07,28,08,06,15.00
2012,07,28,08,07,15.00
2012,07,28,08,08,15.00
2012,07,28,08,09,15.00
2012,07,28,08,10,15.00
2012,07,28,08,11,15.00
2012,07,28,08,12,15.10
2012,07,28,08,13,15.20
2012,07,28,08,14,15.20
2012,07,28,08,15,15.20
2012,07,28,08,16,15.20
2012,07,28,08,17,15.20
2012,07,28,08,18,15.30
2012,07,28,08,19,15.30
2012,07,28,08,20,15.30
2012,07,28,08,21,15.40
2012,07,28,08,22,15.40
2012,07,28,08,23,15.40
2012,07,28,08,24,15.50
2012,07,28,08,25,15.50
2012,07,28,08,26,15.50
2012,07,28,08,27,15.60
2012,07,28,08,28,15.60
2012,07,28,08,29,15.60
2012,07,28,08,30,15.70
2012,07,28,08,31,15.70
2012,07,28,08,32,15.70
2012,07,28,08,33,15.70
2012,07,28,08,34,15.70
2012,07,28,08,35,15.80
2012,07,28,08,36,15.80
2012,07,28,08,37,15.70
2012,07,28,08,38,15.70
2012,07,28,08,39,15.70
2012,07,28,08,40,15.70
2012,07,28,08,41,15.80
2012,07,28,08,42,15.80
2012,07,28,08,43,15.80
2012,07,28,08,44,15.80
2012,07,28,08,45,15.80
2012,07,28,08,46,15.80
2012,07,28,08,47,15.90
2012,07,28,08,48,15.90
2012,07,28,08,49,15.90
2012,07,28,08,50,15.90
2012,07,28,08,51,15.80
2012,07,28,08,52,15.80
2012,07,28,08,53,15.80
2012,07,28,08,54,15.80
2012,07,28,08,55,15.80
2012,07,28,08,56,15.80
2012,07,28,08,57,15.80
2012,07,28,08,58,15.80
2012,07,28,08,59,15.80
2012,07,28,09,00,15.80
2012,07,28,09,01,15.90
2012,07,28,09,02,15.90
2012,07,28,09,03,16.00
2012,07,28,09,04,16.10
2012,07,28,09,05,16.10
2012,07,28,09,06,16.20
2012,07,28,09,07,16.20
2012,07,28,09,08,16.20
2012,07,28,09,09,16.30
2012,07,28,09,10,16.30
2012,07,28,09,11,16.30
2012,07,28,09,12,16.30
2012,07,28,09,13,16.30
2012,07,28,09,14,16.30
2012,07,28,09,15,16.30
2012,07,28,09,16,16.40
2012,07,28,09,17,16.40
2012,07,28,09,18,16.40
2012,07,28,09,19,16.30
2012,07,28,09,20,16.30
2012,07,28,09,21,16.20
2012,07,28,09,22,16.20
2012,07,28,09,23,16.20
2012,07,28,09,24,16.10
2012,07,28,09,25,16.10
2012,07,28,09,26,16.10
2012,07,28,09,27,16.20
2012,07,28,09,28,16.20
2012,07,28,09,29,16.30
2012,07,28,09,30,16.40
2012,07,28,09,31,16.40
2012,07,28,09,32,16.50
2012,07,28,09,33,16.60
2012,07,28,09,34,16.70
2012,07,28,09,35,16.70
2012,07,28,09,36,16.70
2012,07,28,09,37,16.80
2012,07,28,09,38,16.80
2012,07,28,09,39,16.80
2012,07,28,09,40,16.80
2012,07,28,09,41,16.80
2012,07,28,09,42,16.90
2012,07,28,09,43,16.90
2012,07,28,09,44,16.90
2012,07,28,09,45,16.90
2012,07,28,09,46,17.00
2012,07,28,09,47,17.00
2012,07,28,09,48,16.90
2012,07,28,09,49,16.90
2012,07,28,09,50,16.80
2012,07,28,09,51,16.60
2012,07,28,09,52,16.50
2012,07,28,09,53,16.50
2012,07,28,09,54,16.40
2012,07,28,09,55,16.40
2012,07,28,09,56,16.50
2012,07,28,09,57,16.50
2012,07,28,09,58,16.50
2012,07,28,09,59,16.40
2012,07,28,10,00,16.40
2012,07,28,10,01,16.30
2012,07,28,10,02,16.30
2012,07,28,10,03,16.20
2012,07,28,10,04,16.20
2012,07,28,10,05,16.20
2012,07,28,10,06,16.20
2012,07,28,10,07,16.20
2012,07,28,10,08,16.20
2012,07,28,10,09,16.20
2012,07,28,10,10,16.20
2012,07,28,10,11,16.30
2012,07,28,10,12,16.30
2012,07,28,10,13,16.30
2012,07,28,10,14,16.30
2012,07,28,10,15,16.40
2012,07,28,10,16,16.40
2012,07,28,10,17,16.40
2012,07,28,10,18,16.50
2012,07,28,10,19,16.60
2012,07,28,10,20,16.60
2012,07,28,10,21,16.60
2012,07,28,10,22,16.60
2012,07,28,10,23,16.60
2012,07,28,10,24,16.60
2012,07,28,10,25,16.60
2012,07,28,10,26,16.60
2012,07,28,10,27,16.60
2012,07,28,10,28,16.60
2012,07,28,10,29,16.50
2012,07,28,10,30,16.50
2012,07,28,10,31,16.50
2012,07,28,10,32,16.50
2012,07,28,10,33,16.50
2012,07,28,10,34,16.60
2012,07,28,10,35,16.70
2012,07,28,10,36,16.70
2012,07,28,10,37,16.70
2012,07,28,10,38,16.70
2012,07,28,10,39,16.70
2012,07,28,10,40,16.80
2012,07,28,10,41,16.70
2012,07,28,10,42,16.70
2012,07,28,10,43,16.70
2012,07,28,10,44,16.80
2012,07,28,10,45,16.80
2012,07,28,10,46,16.90
2012,07,28,10,47,17.00
2012,07,28,10,48,17.10
2012,07,28,10,49,17.20
2012,07,28,10,50,17.30
2012,07,28,10,51,17.30
2012,07,28,10,52,17.20
2012,07,28,10,53,17.20
2012,07,28,10,54,17.20
2012,07,28,10,55,17.20
2012,07,28,10,56,17.20
2012,07,28,10,57,17.20
2012,07,28,10,58,17.30
2012,07,28,10,59,17.50
2012,07,28,11,00,17.60
2012,07,28,11,01,17.80
2012,07,28,11,02,17.80
2012,07,28,11,03,17.90
2012,07,28,11,04,18.00
2012,07,28,11,05,18.00
2012,07,28,11,06,18.00
2012,07,28,11,07,18.00
2012,07,28,11,08,17.90
2012,07,28,11,09,17.90
2012,07,28,11,10,18.00
2012,07,28,11,11,18.00
2012,07,28,11,12,18.10
2012,07,28,11,13,18.20
2012,07,28,11,14,18.20
2012,07,28,11,15,18.30
2012,07,28,11,16,18.20
2012,07,28,11,17,18.30
2012,07,28,11,18,18.30
2012,07,28,11,19,18.30
2012,07,28,11,20,18.30
2012,07,28,11,21,18.20
2012,07,28,11,22,18.10
2012,07,28,11,23,17.90
2012,07,28,11,24,17.70
2012,07,28,11,25,17.50
2012,07,28,11,26,17.40
2012,07,28,11,27,17.30
2012,07,28,11,28,17.40
2012,07,28,11,29,17.40
2012,07,28,11,30,17.40
2012,07,28,11,31,17.40
2012,07,28,11,32,17.40
2012,07,28,11,33,17.40
2012,07,28,11,34,17.40
2012,07,28,11,35,17.40
2012,07,28,11,36,17.40
2012,07,28,11,37,17.40
2012,07,28,11,38,17.50
2012,07,28,11,39,17.60
2012,07,28,11,40,17.80
2012,07,28,11,41,17.80
2012,07,28,11,42,18.00
2012,07,28,11,43,18.10
2012,07,28,11,44,18.10
2012,07,28,11,45,18.20
2012,07,28,11,46,18.30
2012,07,28,11,47,18.30
2012,07,28,11,48,18.30
2012,07,28,11,49,18.30
2012,07,28,11,50,18.20
2012,07,28,11,51,18.20
2012,07,28,11,52,18.30
2012,07,28,11,53,18.30
2012,07,28,11,54,18.40
2012,07,28,11,55,18.40
2012,07,28,11,56,18.40
2012,07,28,11,57,18.50
2012,07,28,11,58,18.50
2012,07,28,11,59,18.50
2012,07,28,12,00,18.60
2012,07,28,12,01,18.70
2012,07,28,12,02,18.90
2012,07,28,12,03,18.90
2012,07,28,12,04,18.90
2012,07,28,12,05,19.00
2012,07,28,12,06,19.00
2012,07,28,12,07,18.90
2012,07,28,12,08,19.00
2012,07,28,12,09,19.10
2012,07,28,12,10,19.10
2012,07,28,12,11,19.20
2012,07,28,12,12,19.20
2012,07,28,12,13,19.20
2012,07,28,12,14,19.20
2012,07,28,12,15,19.20
2012,07,28,12,16,19.30
2012,07,28,12,17,19.30
2012,07,28,12,18,19.30
2012,07,28,12,19,19.30
2012,07,28,12,20,19.30
2012,07,28,12,21,19.30
2012,07,28,12,22,19.30
2012,07,28,12,23,19.30
2012,07,28,12,24,19.30
2012,07,28,12,25,19.40
2012,07,28,12,26,19.40
2012,07,28,12,27,19.30
2012,07,28,12,28,19.20
2012,07,28,12,29,19.20
2012,07,28,12,30,19.30
2012,07,28,12,31,19.20
2012,07,28,12,32,19.20
2012,07,28,12,33,19.20
2012,07,28,12,34,19.10
2012,07,28,12,35,18.90
2012,07,28,12,36,18.80
2012,07,28,12,37,18.90
2012,07,28,12,38,19.00
2012,07,28,12,39,19.10
2012,07,28,12,40,19.20
2012,07,28,12,41,19.20
2012,07,28,12,42,19.20
2012,07,28,12,43,19.30
2012,07,28,12,44,19.40
2012,07,28,12,45,19.50
2012,07,28,12,46,19.60
2012,07,28,12,47,19.60
2012,07,28,12,48,19.70
2012,07,28,12,49,19.80
2012,07,28,12,50,19.90
2012,07,28,12,51,19.90
2012,07,28,12,52,19.90
2012,07,28,12,53,19.90
2012,07,28,12,54,19.90
2012,07,28,12,55,19.80
2012,07,28,12,56,19.80
2012,07,28,12,57,19.70
2012,07,28,12,58,19.70
2012,07,28,12,59,19.60
2012,07,28,13,00,19.60
2012,07,28,13,01,19.60
2012,07,28,13,02,19.60
2012,07,28,13,03,19.70
2012,07,28,13,04,19.70
2012,07,28,13,05,19.80
2012,07,28,13,06,19.90
2012,07,28,13,07,19.90
2012,07,28,13,08,20.00
2012,07,28,13,09,20.00
2012,07,28,13,10,20.00
2012,07,28,13,11,20.10
2012,07,28,13,12,20.20
2012,07,28,13,13,20.20
2012,07,28,13,14,20.10
2012,07,28,13,15,20.10
2012,07,28,13,16,20.10
2012,07,28,13,17,20.00
2012,07,28,13,18,19.90
2012,07,28,13,19,19.80
2012,07,28,13,20,19.80
2012,07,28,13,21,19.80
2012,07,28,13,22,19.70
2012,07,28,13,23,19.80
2012,07,28,13,24,19.80
2012,07,28,13,25,19.80
2012,07,28,13,26,19.80
2012,07,28,13,27,19.70
2012,07,28,13,28,19.60
2012,07,28,13,29,19.60
2012,07,28,13,30,19.80
2012,07,28,13,31,19.80
2012,07,28,13,32,19.80
2012,07,28,13,33,19.70
2012,07,28,13,34,19.70
2012,07,28,13,35,19.70
2012,07,28,13,36,19.70
2012,07,28,13,37,19.70
2012,07,28,13,38,19.80
2012,07,28,13,39,19.80
2012,07,28,13,40,19.90
2012,07,28,13,41,20.00
2012,07,28,13,42,20.10
2012,07,28,13,43,20.30
2012,07,28,13,44,20.40
2012,07,28,13,45,20.50
2012,07,28,13,46,20.50
2012,07,28,13,47,20.40
2012,07,28,13,48,20.30
2012,07,28,13,49,20.30
2012,07,28,13,50,20.30
2012,07,28,13,51,20.30
2012,07,28,13,52,20.30
2012,07,28,13,53,20.30
2012,07,28,13,54,20.30
2012,07,28,13,55,20.30
2012,07,28,13,56,20.20
2012,07,28,13,57,20.20
2012,07,28,13,58,20.10
2012,07,28,13,59,20.10
2012,07,28,14,00,20.10
2012,07,28,14,01,20.10
2012,07,28,14,02,20.10
2012,07,28,14,03,20.10
2012,07,28,14,04,20.20
2012,07,28,14,05,20.20
2012,07,28,14,06,20.20
2012,07,28,14,07,20.30
2012,07,28,14,08,20.30
2012,07,28,14,09,20.40
2012,07,28,14,10,20.30
2012,07,28,14,11,20.40
2012,07,28,14,12,20.50
2012,07,28,14,13,20.60
2012,07,28,14,14,20.70
2012,07,28,14,15,20.80
2012,07,28,14,16,20.90
2012,07,28,14,17,21.00
2012,07,28,14,18,21.10
2012,07,28,14,19,21.10
2012,07,28,14,20,21.10
2012,07,28,14,21,21.20
2012,07,28,14,22,21.20
2012,07,28,14,23,21.20
2012,07,28,14,24,21.20
2012,07,28,14,25,21.20
2012,07,28,14,26,21.20
2012,07,28,14,27,21.20
2012,07,28,14,28,21.20
2012,07,28,14,29,21.20
2012,07,28,14,30,21.10
2012,07,28,14,31,21.10
2012,07,28,14,32,21.00
2012,07,28,14,33,21.00
2012,07,28,14,34,20.90
2012,07,28,14,35,20.90
2012,07,28,14,36,20.90
2012,07,28,14,37,20.90
2012,07,28,14,38,21.00
2012,07,28,14,39,21.20
2012,07,28,14,40,21.30
2012,07,28,14,41,21.40
2012,07,28,14,42,21.40
2012,07,28,14,43,21.40
2012,07,28,14,44,21.50
2012,07,28,14,45,21.50
2012,07,28,14,46,21.40
2012,07,28,14,47,21.30
2012,07,28,14,48,21.30
2012,07,28,14,49,21.10
2012,07,28,14,50,21.10
2012,07,28,14,51,21.00
2012,07,28,14,52,21.00
2012,07,28,14,53,21.10
2012,07,28,14,54,21.10
2012,07,28,14,55,21.20
2012,07,28,14,56,21.20
2012,07,28,14,57,21.10
2012,07,28,14,58,21.10
2012,07,28,14,59,21.10
2012,07,28,15,00,21.10
2012,07,28,15,01,21.10
2012,07,28,15,02,21.10
2012,07,28,15,03,21.10
2012,07,28,15,04,21.10
2012,07,28,15,05,21.10
2012,07,28,15,06,21.00
2012,07,28,15,07,21.00
2012,07,28,15,08,20.90
2012,07,28,15,09,20.80
2012,07,28,15,10,20.70
2012,07,28,15,11,20.70
2012,07,28,15,12,20.80
2012,07,28,15,13,20.90
2012,07,28,15,14,20.90
2012,07,28,15,15,21.00
2012,07,28,15,16,21.00
2012,07,28,15,17,21.00
2012,07,28,15,18,21.10
2012,07,28,15,19,21.20
2012,07,28,15,20,21.20
2012,07,28,15,21,21.20
2012,07,28,15,22,21.20
2012,07,28,15,23,21.10
2012,07,28,15,24,21.00
2012,07,28,15,25,21.10
2012,07,28,15,26,21.10
2012,07,28,15,27,21.10
2012,07,28,15,28,21.10
2012,07,28,15,29,21.10
2012,07,28,15,30,21.00
2012,07,28,15,31,21.00
2012,07,28,15,32,21.00
2012,07,28,15,33,21.00
2012,07,28,15,34,21.00
2012,07,28,15,35,20.90
2012,07,28,15,36,21.00
2012,07,28,15,37,21.00
2012,07,28,15,38,21.10
2012,07,28,15,39,21.10
2012,07,28,15,40,21.10
2012,07,28,15,41,21.20
2012,07,28,15,42,21.30
2012,07,28,15,43,21.40
2012,07,28,15,44,21.50
2012,07,28,15,45,21.50
2012,07,28,15,46,21.40
2012,07,28,15,47,21.50
2012,07,28,15,48,21.50
2012,07,28,15,49,21.50
2012,07,28,15,50,21.50
2012,07,28,15,51,21.60
2012,07,28,15,52,21.60
2012,07,28,15,53,21.50
2012,07,28,15,54,21.50
2012,07,28,15,55,21.50
2012,07,28,15,56,21.50
2012,07,28,15,57,21.50
2012,07,28,15,58,21.60
2012,07,28,15,59,21.60
2012,07,28,16,00,21.60
2012,07,28,16,01,21.60
2012,07,28,16,02,21.60
2012,07,28,16,03,21.50
2012,07,28,16,04,21.40
2012,07,28,16,05,21.30
2012,07,28,16,06,21.30
2012,07,28,16,07,21.30
2012,07,28,16,08,21.30
2012,07,28,16,09,21.20
2012,07,28,16,10,21.20
2012,07,28,16,11,21.10
2012,07,28,16,12,20.90
2012,07,28,16,13,20.80
2012,07,28,16,14,20.70
2012,07,28,16,15,20.60
2012,07,28,16,16,20.60
2012,07,28,16,17,20.70
2012,07,28,16,18,20.70
2012,07,28,16,19,20.80
2012,07,28,16,20,20.80
2012,07,28,16,21,20.80
2012,07,28,16,22,20.90
2012,07,28,16,23,21.00
2012,07,28,16,24,21.10
2012,07,28,16,25,21.10
2012,07,28,16,26,21.20
2012,07,28,16,27,21.20
2012,07,28,16,28,21.20
2012,07,28,16,29,21.20
2012,07,28,16,30,21.20
2012,07,28,16,31,21.30
2012,07,28,16,32,21.40
2012,07,28,16,33,21.40
2012,07,28,16,34,21.40
2012,07,28,16,35,21.40
2012,07,28,16,36,21.40
2012,07,28,16,37,21.40
2012,07,28,16,38,21.30
2012,07,28,16,39,21.30
2012,07,28,16,40,21.20
2012,07,28,16,41,21.20
2012,07,28,16,42,21.30
2012,07,28,16,43,21.30
2012,07,28,16,44,21.30
2012,07,28,16,45,21.30
2012,07,28,16,46,21.40
2012,07,28,16,47,21.40
2012,07,28,16,48,21.30
2012,07,28,16,49,21.30
2012,07,28,16,50,21.20
2012,07,28,16,51,21.10
2012,07,28,16,52,21.10
2012,07,28,16,53,21.10
2012,07,28,16,54,21.10
2012,07,28,16,55,21.10
2012,07,28,16,56,21.10
2012,07,28,16,57,21.00
2012,07,28,16,58,20.90
2012,07,28,16,59,20.90
2012,07,28,17,00,20.80
2012,07,28,17,01,20.80
2012,07,28,17,02,20.80
2012,07,28,17,03,20.80
2012,07,28,17,04,20.80
2012,07,28,17,05,20.80
2012,07,28,17,06,20.80
2012,07,28,17,07,20.90
2012,07,28,17,08,21.10
2012,07,28,17,09,21.10
2012,07,28,17,10,21.20
2012,07,28,17,11,21.20
2012,07,28,17,12,21.20
2012,07,28,17,13,21.20
2012,07,28,17,14,21.20
2012,07,28,17,15,21.20
2012,07,28,17,16,21.30
2012,07,28,17,17,21.30
2012,07,28,17,18,21.40
2012,07,28,17,19,21.50